Overview Statistics Trail Chart Weather Telemetry Raw packets
 

This is the latest recevied weather packets stored in our database for station/object KN6DHD. If no packets are shown the sender has not sent any weather packets the latest 10 day(s).

<< 54 55 56 57 58 59 60 >>
Time Temp. Humidity Pressure Rain* Wind** Luminosity Snow
1777409815 23.33° C 48% 1019.5 hPa 0 mm - 679 W/m² -
1777409511 23.33° C 47% 1019.4 hPa 0 mm - 674 W/m² -
1777409207 23.89° C 47% 1019.3 hPa 0 mm - 653 W/m² -
1777408903 23.89° C 48% 1019.4 hPa 0 mm - 637 W/m² -
1777408599 23.33° C 48% 1019.6 hPa 0 mm - 633 W/m² -
1777408295 23.33° C 49% 1019.6 hPa 0 mm - 624 W/m² -
1777407990 23.89° C 47% 1019.7 hPa 0 mm - 687 W/m² -
1777407688 23.33° C 48% 1019.6 hPa 0 mm - 669 W/m² -
1777407387 22.22° C 48% 1019.6 hPa 0 mm - 669 W/m² -
1777407082 22.22° C 49% 1019.7 hPa 0 mm - 664 W/m² -
1777406778 22.22° C 51% 1019.9 hPa 0 mm - 654 W/m² -
1777406473 21.67° C 53% 1019.8 hPa 0 mm - 631 W/m² -
1777406168 21.67° C 54% 1020.1 hPa 0 mm - 684 W/m² -
1777405863 21.67° C 53% 1020.1 hPa 0 mm - 664 W/m² -
1777405560 21.11° C 55% 1020.2 hPa 0 mm - 631 W/m² -
1777405257 22.22° C 55% 1020 hPa 0 mm - 649 W/m² -
1777404955 21.67° C 56% 1020.1 hPa 0 mm - 678 W/m² -
1777404646 20.56° C 57% 1020 hPa 0 mm - 677 W/m² -
1777404342 20.56° C 58% 1020.6 hPa 0 mm - 704 W/m² -
1777404038 21.11° C 58% 1020.3 hPa 0 mm - 675 W/m² -
1777403728 21.11° C 56% 1020.3 hPa 0 mm - 647 W/m² -
1777403427 20° C 57% 1020.5 hPa 0 mm - 620 W/m² -
1777403122 20.56° C 56% 1020.6 hPa 0 mm - 170 W/m² -
1777402818 20° C 58% 1020.8 hPa 0 mm - 511 W/m² -
1777402515 20° C 59% 1020.8 hPa 0 mm - 597 W/m² -

* Rain latest hour (hover to see other rain measurements)
** Current wind speed in m/s (hover to see current wind gust speed)